Wetterdaten: Woche 06.02.17 - 12.02.17 (KW6)
Datum Zeit Temp. I. Temp. A. Feuchte I. Feuchte A. Luftdruck Regen Wind Richtung Sonnenschein UV Solar Taupunkt Windchill Windben
06.02.2017 00:00 23,4 C -1,5 C 52 % 94 % 1007,1 hPa 0,0 l/m 0,0 km/h (0 Bft) N 0,00 h 0,0 UV-I 0 W/m -2,3 C -1,5 C 0,0 km/h (0 Bft)
06.02.2017 01:00 23,1 C -1,1 C 53 % 95 % 1007,8 hPa 0,0 l/m 0,0 km/h (0 Bft) N 0,00 h 0,0 UV-I 0 W/m -1,8 C -1,1 C 0,0 km/h (0 Bft)
06.02.2017 02:00 22,8 C -1,5 C 53 % 94 % 1008,3 hPa 0,0 l/m 0,0 km/h (0 Bft) N 0,00 h 0,0 UV-I 0 W/m -2,3 C -1,5 C 0,0 km/h (0 Bft)
06.02.2017 03:00 22,7 C -1,4 C 53 % 95 % 1009,0 hPa 0,0 l/m 0,0 km/h (0 Bft) N 0,00 h 0,0 UV-I 0 W/m -2,1 C -1,4 C 0,0 km/h (0 Bft)
06.02.2017 04:00 22,7 C -1,1 C 53 % 95 % 1009,9 hPa 0,0 l/m 0,0 km/h (0 Bft) N 0,00 h 0,0 UV-I 0 W/m -1,8 C -1,1 C 0,0 km/h (0 Bft)
06.02.2017 05:00 22,6 C -0,8 C 53 % 95 % 1010,8 hPa 0,0 l/m 0,0 km/h (0 Bft) N 0,00 h 0,0 UV-I 0 W/m -1,5 C -0,8 C 0,0 km/h (0 Bft)
06.02.2017 06:00 22,5 C -1,0 C 54 % 95 % 1011,7 hPa 0,0 l/m 0,0 km/h (0 Bft) N 0,00 h 0,0 UV-I 0 W/m -1,7 C -1,0 C 0,0 km/h (0 Bft)
06.02.2017 07:00 22,8 C -1,5 C 55 % 95 % 1012,9 hPa 0,0 l/m 0,0 km/h (0 Bft) N 0,00 h 0,0 UV-I 5 W/m -2,3 C -1,5 C 0,0 km/h (0 Bft)
06.02.2017 08:00 23,1 C -1,7 C 54 % 95 % 1013,9 hPa 0,0 l/m 0,0 km/h (0 Bft) N 0,00 h 0,0 UV-I 30 W/m -2,4 C -1,7 C 0,0 km/h (0 Bft)
06.02.2017 09:00 23,0 C -0,1 C 54 % 95 % 1014,7 hPa 0,0 l/m 0,0 km/h (0 Bft) N 0,00 h 0,5 UV-I 104 W/m -0,7 C -0,1 C 0,0 km/h (0 Bft)
06.02.2017 10:00 22,9 C 2,4 C 53 % 92 % 1015,4 hPa 0,0 l/m 1,6 km/h (1 Bft) N 0,52 h 0,7 UV-I 155 W/m 1,1 C 2,4 C 3,9 km/h (1 Bft)
06.02.2017 11:00 23,1 C 3,6 C 54 % 86 % 1015,8 hPa 0,0 l/m 5,4 km/h (1 Bft) N 1,00 h 1,0 UV-I 190 W/m 1,5 C 3,4 C 9,1 km/h (2 Bft)
06.02.2017 12:00 23,6 C 3,9 C 55 % 85 % 1016,3 hPa 0,0 l/m 4,0 km/h (1 Bft) N 0,78 h 1,0 UV-I 163 W/m 1,5 C 3,8 C 8,0 km/h (2 Bft)
06.02.2017 13:00 23,6 C 4,2 C 54 % 84 % 1016,6 hPa 0,0 l/m 2,7 km/h (1 Bft) N 0,52 h 0,9 UV-I 159 W/m 1,7 C 4,2 C 5,4 km/h (1 Bft)
06.02.2017 14:00 23,6 C 4,2 C 55 % 84 % 1016,7 hPa 0,0 l/m 2,2 km/h (1 Bft) N-NO 0,00 h 0,6 UV-I 99 W/m 1,7 C 4,1 C 4,5 km/h (1 Bft)
06.02.2017 15:00 23,5 C 3,7 C 54 % 85 % 1017,2 hPa 0,0 l/m 5,1 km/h (1 Bft) N 0,00 h 0,5 UV-I 59 W/m 1,4 C 3,3 C 9,1 km/h (2 Bft)
06.02.2017 16:00 23,3 C 3,2 C 54 % 86 % 1017,9 hPa 0,0 l/m 5,7 km/h (1 Bft) N 0,00 h 0,0 UV-I 17 W/m 1,1 C 2,6 C 9,7 km/h (2 Bft)
06.02.2017 17:00 23,5 C 2,7 C 55 % 87 % 1018,8 hPa 0,0 l/m 1,4 km/h (1 Bft) N-NW 0,00 h 0,0 UV-I 5 W/m 0,8 C 2,6 C 2,8 km/h (1 Bft)
06.02.2017 18:00 23,6 C 2,1 C 56 % 89 % 1019,4 hPa 0,0 l/m 1,1 km/h (1 Bft) N-NW 0,00 h 0,0 UV-I 0 W/m 0,5 C 2,1 C 2,6 km/h (1 Bft)
06.02.2017 19:00 24,0 C 1,6 C 56 % 90 % 1019,6 hPa 0,0 l/m 0,7 km/h (0 Bft) N-NW 0,00 h 0,0 UV-I 0 W/m 0,2 C 1,6 C 1,6 km/h (1 Bft)
06.02.2017 20:00 24,1 C 1,3 C 56 % 91 % 1019,9 hPa 0,0 l/m 1,0 km/h (0 Bft) N-NW 0,00 h 0,0 UV-I 0 W/m -0,0 C 1,3 C 1,9 km/h (1 Bft)
06.02.2017 21:00 24,2 C 1,0 C 57 % 92 % 1019,7 hPa 0,0 l/m 1,4 km/h (1 Bft) N 0,00 h 0,0 UV-I 0 W/m -0,1 C 1,0 C 2,7 km/h (1 Bft)
06.02.2017 22:00 24,2 C 0,8 C 57 % 93 % 1019,7 hPa 0,0 l/m 0,9 km/h (0 Bft) N 0,00 h 0,0 UV-I 0 W/m -0,2 C 0,8 C 2,0 km/h (1 Bft)
06.02.2017 23:00 24,0 C 0,7 C 57 % 93 % 1019,8 hPa 0,0 l/m 1,5 km/h (1 Bft) N 0,00 h 0,0 UV-I 0 W/m -0,3 C 0,7 C 2,9 km/h (1 Bft)
07.02.2017 00:00 23,6 C 0,5 C 57 % 93 % 1019,9 hPa 0,0 l/m 1,0 km/h (0 Bft) N-NO 0,00 h 0,0 UV-I 0 W/m -0,5 C 0,5 C 2,5 km/h (1 Bft)
07.02.2017 01:00 23,3 C 0,3 C 57 % 93 % 1020,0 hPa 0,0 l/m 2,3 km/h (1 Bft) N 0,00 h 0,0 UV-I 0 W/m -0,7 C 0,3 C 4,8 km/h (1 Bft)
07.02.2017 02:00 23,2 C 0,3 C 57 % 93 % 1019,9 hPa 0,0 l/m 1,7 km/h (1 Bft) N 0,00 h 0,0 UV-I 0 W/m -0,7 C 0,3 C 3,5 km/h (1 Bft)
07.02.2017 03:00 23,1 C 0,2 C 57 % 93 % 1019,7 hPa 0,0 l/m 1,4 km/h (1 Bft) N 0,00 h 0,0 UV-I 0 W/m -0,8 C 0,2 C 3,2 km/h (1 Bft)
07.02.2017 04:00 22,9 C 0,2 C 57 % 93 % 1019,6 hPa 0,0 l/m 0,0 km/h (0 Bft) N 0,00 h 0,0 UV-I 0 W/m -0,8 C 0,2 C 0,0 km/h (0 Bft)
07.02.2017 05:00 22,9 C 0,2 C 57 % 93 % 1019,5 hPa 0,0 l/m 1,8 km/h (1 Bft) N 0,00 h 0,0 UV-I 0 W/m -0,8 C 0,2 C 3,4 km/h (1 Bft)
07.02.2017 06:00 22,8 C 0,2 C 57 % 94 % 1019,4 hPa 0,0 l/m 0,1 km/h (0 Bft) N-NO 0,00 h 0,0 UV-I 0 W/m -0,7 C 0,2 C 0,4 km/h (0 Bft)
07.02.2017 07:00 23,0 C 0,3 C 58 % 95 % 1019,6 hPa 0,0 l/m 0,0 km/h (0 Bft) N 0,00 h 0,0 UV-I 6 W/m -0,5 C 0,3 C 0,0 km/h (0 Bft)
07.02.2017 08:00 23,1 C 0,4 C 58 % 95 % 1019,8 hPa 0,0 l/m 0,0 km/h (0 Bft) N 0,00 h 0,0 UV-I 17 W/m -0,3 C 0,4 C 0,0 km/h (0 Bft)
07.02.2017 09:00 23,2 C 0,6 C 59 % 95 % 1019,6 hPa 0,0 l/m 0,0 km/h (0 Bft) N 0,00 h 0,0 UV-I 39 W/m -0,1 C 0,6 C 0,0 km/h (0 Bft)
07.02.2017 10:00 23,3 C 0,7 C 57 % 94 % 1019,5 hPa 0,0 l/m 0,4 km/h (0 Bft) O-SO 0,00 h 0,5 UV-I 67 W/m -0,1 C 0,7 C 1,1 km/h (1 Bft)
07.02.2017 11:00 23,3 C 0,9 C 55 % 92 % 1019,6 hPa 0,0 l/m 0,1 km/h (0 Bft) O-NO 0,00 h 0,5 UV-I 76 W/m -0,3 C 0,9 C 0,4 km/h (0 Bft)
07.02.2017 12:00 23,5 C 1,3 C 54 % 88 % 1019,2 hPa 0,0 l/m 0,0 km/h (0 Bft) N 0,00 h 0,7 UV-I 110 W/m -0,4 C 1,3 C 0,0 km/h (0 Bft)
07.02.2017 13:00 23,7 C 1,6 C 54 % 87 % 1018,8 hPa 0,0 l/m 0,4 km/h (0 Bft) NO 0,00 h 0,6 UV-I 98 W/m -0,3 C 1,6 C 1,3 km/h (1 Bft)
07.02.2017 14:00 23,5 C 1,7 C 55 % 86 % 1018,8 hPa 0,0 l/m 1,3 km/h (1 Bft) O-NO 0,00 h 0,5 UV-I 84 W/m -0,3 C 1,7 C 3,3 km/h (1 Bft)
07.02.2017 15:00 23,6 C 1,5 C 55 % 86 % 1018,8 hPa 0,0 l/m 0,7 km/h (0 Bft) O-SO 0,00 h 0,0 UV-I 52 W/m -0,6 C 1,5 C 2,3 km/h (1 Bft)
07.02.2017 16:00 23,7 C 1,1 C 55 % 86 % 1019,2 hPa 0,0 l/m 0,6 km/h (0 Bft) O 0,00 h 0,0 UV-I 18 W/m -0,9 C 1,1 C 1,9 km/h (1 Bft)
07.02.2017 17:00 23,9 C 0,6 C 55 % 87 % 1019,3 hPa 0,0 l/m 1,7 km/h (1 Bft) O-SO 0,00 h 0,0 UV-I 0 W/m -1,2 C 0,6 C 5,2 km/h (1 Bft)
07.02.2017 18:00 23,9 C 0,2 C 54 % 89 % 1019,4 hPa 0,0 l/m 3,3 km/h (1 Bft) O 0,00 h 0,0 UV-I 0 W/m -1,5 C 0,1 C 7,7 km/h (2 Bft)
07.02.2017 19:00 24,0 C -0,0 C 55 % 89 % 1019,8 hPa 0,0 l/m 3,6 km/h (1 Bft) N-NO 0,00 h 0,0 UV-I 0 W/m -1,6 C -0,2 C 7,9 km/h (2 Bft)
07.02.2017 20:00 23,9 C -0,2 C 55 % 89 % 1020,0 hPa 0,0 l/m 3,1 km/h (1 Bft) O-NO 0,00 h 0,0 UV-I 0 W/m -1,8 C -0,3 C 7,1 km/h (2 Bft)
07.02.2017 21:00 24,1 C -0,4 C 55 % 90 % 1020,2 hPa 0,0 l/m 3,3 km/h (1 Bft) O-NO 0,00 h 0,0 UV-I 0 W/m -1,9 C -0,4 C 6,9 km/h (2 Bft)
07.02.2017 22:00 23,9 C -0,6 C 55 % 91 % 1020,3 hPa 0,0 l/m 2,5 km/h (1 Bft) O-NO 0,00 h 0,0 UV-I 0 W/m -1,9 C -0,6 C 5,7 km/h (1 Bft)
07.02.2017 23:00 23,7 C -0,7 C 55 % 92 % 1020,5 hPa 0,0 l/m 3,8 km/h (1 Bft) O-NO 0,00 h 0,0 UV-I 0 W/m -1,9 C -0,9 C 7,8 km/h (2 Bft)
08.02.2017 00:00 23,3 C -0,8 C 55 % 93 % 1020,7 hPa 0,0 l/m 3,3 km/h (1 Bft) O-NO 0,00 h 0,0 UV-I 0 W/m -1,8 C -0,9 C 7,3 km/h (2 Bft)
08.02.2017 01:00 23,2 C -0,8 C 56 % 92 % 1020,9 hPa 0,0 l/m 2,4 km/h (1 Bft) O-NO 0,00 h 0,0 UV-I 0 W/m -2,0 C -0,8 C 5,5 km/h (1 Bft)
08.02.2017 02:00 23,1 C -0,9 C 56 % 90 % 1021,0 hPa 0,0 l/m 3,1 km/h (1 Bft) O-NO 0,00 h 0,0 UV-I 0 W/m -2,4 C -0,9 C 7,4 km/h (2 Bft)
08.02.2017 03:00 22,9 C -1,2 C 56 % 88 % 1021,0 hPa 0,0 l/m 4,0 km/h (1 Bft) O-NO 0,00 h 0,0 UV-I 0 W/m -2,9 C -1,4 C 8,3 km/h (2 Bft)
08.02.2017 04:00 22,9 C -1,5 C 56 % 87 % 1021,2 hPa 0,0 l/m 2,8 km/h (1 Bft) O-NO 0,00 h 0,0 UV-I 0 W/m -3,3 C -1,5 C 6,6 km/h (2 Bft)
08.02.2017 05:00 22,8 C -1,6 C 56 % 87 % 1021,4 hPa 0,0 l/m 4,8 km/h (1 Bft) O-NO 0,00 h 0,0 UV-I 0 W/m -3,5 C -2,1 C 9,6 km/h (2 Bft)
08.02.2017 06:00 22,7 C -1,6 C 56 % 87 % 1022,1 hPa 0,0 l/m 3,6 km/h (1 Bft) NO 0,00 h 0,0 UV-I 0 W/m -3,5 C -1,7 C 7,7 km/h (2 Bft)
08.02.2017 07:00 23,0 C -1,6 C 57 % 86 % 1022,8 hPa 0,0 l/m 3,4 km/h (1 Bft) O-NO 0,00 h 0,0 UV-I 8 W/m -3,6 C -1,6 C 7,5 km/h (2 Bft)
08.02.2017 08:00 22,9 C -1,6 C 56 % 86 % 1023,2 hPa 0,0 l/m 4,3 km/h (1 Bft) O-NO 0,00 h 0,0 UV-I 25 W/m -3,6 C -1,8 C 9,1 km/h (2 Bft)
08.02.2017 09:00 22,9 C -1,2 C 52 % 85 % 1023,5 hPa 0,0 l/m 4,2 km/h (1 Bft) O-NO 0,00 h 0,5 UV-I 67 W/m -3,4 C -1,3 C 8,4 km/h (2 Bft)
08.02.2017 10:00 23,0 C -0,6 C 51 % 83 % 1023,9 hPa 0,0 l/m 2,2 km/h (1 Bft) O-NO 0,00 h 0,6 UV-I 102 W/m -3,2 C -0,6 C 4,1 km/h (1 Bft)
08.02.2017 11:00 23,0 C -0,4 C 49 % 80 % 1024,4 hPa 0,0 l/m 0,5 km/h (0 Bft) O-NO 0,00 h 0,7 UV-I 117 W/m -3,4 C -0,4 C 1,5 km/h (1 Bft)
08.02.2017 12:00 22,9 C 0,2 C 47 % 78 % 1024,4 hPa 0,0 l/m 2,4 km/h (1 Bft) O-NO 0,90 h 1,1 UV-I 189 W/m -3,3 C 0,1 C 5,6 km/h (1 Bft)
08.02.2017 13:00 23,2 C 0,4 C 49 % 75 % 1024,4 hPa 0,0 l/m 2,7 km/h (1 Bft) O-NO 1,00 h 1,0 UV-I 188 W/m -3,4 C 0,4 C 6,9 km/h (2 Bft)
08.02.2017 14:00 23,2 C 0,6 C 49 % 75 % 1024,5 hPa 0,0 l/m 1,9 km/h (1 Bft) O-NO 0,67 h 0,8 UV-I 161 W/m -3,3 C 0,6 C 4,7 km/h (1 Bft)
08.02.2017 15:00 23,4 C 0,9 C 49 % 75 % 1024,8 hPa 0,0 l/m 3,3 km/h (1 Bft) O-NO 0,02 h 0,7 UV-I 128 W/m -3,1 C 0,8 C 7,0 km/h (2 Bft)
08.02.2017 16:00 23,8 C 0,3 C 50 % 75 % 1025,1 hPa 0,0 l/m 4,4 km/h (1 Bft) O-NO 0,00 h 0,0 UV-I 48 W/m -3,6 C 0,1 C 9,0 km/h (2 Bft)
08.02.2017 17:00 24,1 C -0,3 C 50 % 75 % 1025,9 hPa 0,0 l/m 1,1 km/h (1 Bft) O-NO 0,00 h 0,0 UV-I 7 W/m -4,1 C -0,3 C 3,2 km/h (1 Bft)
08.02.2017 18:00 23,9 C -1,0 C 51 % 78 % 1026,6 hPa 0,0 l/m 0,7 km/h (0 Bft) O-NO 0,00 h 0,0 UV-I 0 W/m -4,4 C -1,0 C 1,9 km/h (1 Bft)
08.02.2017 19:00 23,9 C -1,9 C 53 % 81 % 1027,2 hPa 0,0 l/m 0,3 km/h (0 Bft) O 0,00 h 0,0 UV-I 0 W/m -4,7 C -1,9 C 1,6 km/h (1 Bft)
08.02.2017 20:00 23,8 C -2,6 C 53 % 84 % 1027,7 hPa 0,0 l/m 1,5 km/h (1 Bft) O-NO 0,00 h 0,0 UV-I 0 W/m -5,0 C -2,6 C 3,9 km/h (1 Bft)
08.02.2017 21:00 23,9 C -2,5 C 52 % 85 % 1028,0 hPa 0,0 l/m 2,2 km/h (1 Bft) O 0,00 h 0,0 UV-I 0 W/m -4,7 C -2,5 C 6,1 km/h (2 Bft)
08.02.2017 22:00 23,8 C -2,4 C 52 % 86 % 1028,3 hPa 0,0 l/m 4,2 km/h (1 Bft) O 0,00 h 0,0 UV-I 0 W/m -4,4 C -2,6 C 9,1 km/h (2 Bft)
08.02.2017 23:00 23,4 C -2,4 C 53 % 87 % 1028,5 hPa 0,0 l/m 2,5 km/h (1 Bft) N-NO 0,00 h 0,0 UV-I 0 W/m -4,4 C -2,4 C 5,5 km/h (1 Bft)
09.02.2017 00:00 23,1 C -2,4 C 53 % 86 % 1028,7 hPa 0,0 l/m 3,2 km/h (1 Bft) N-NO 0,00 h 0,0 UV-I 0 W/m -4,5 C -2,7 C 6,5 km/h (2 Bft)
09.02.2017 01:00 22,9 C -2,7 C 53 % 86 % 1028,7 hPa 0,0 l/m 3,8 km/h (1 Bft) O-NO 0,00 h 0,0 UV-I 0 W/m -4,7 C -2,8 C 7,8 km/h (2 Bft)
09.02.2017 02:00 22,8 C -2,9 C 54 % 86 % 1028,9 hPa 0,0 l/m 3,5 km/h (1 Bft) O-NO 0,00 h 0,0 UV-I 0 W/m -4,9 C -3,0 C 7,3 km/h (2 Bft)
09.02.2017 03:00 22,7 C -3,0 C 54 % 86 % 1028,8 hPa 0,0 l/m 5,2 km/h (1 Bft) O-NO 0,00 h 0,0 UV-I 0 W/m -5,0 C -3,4 C 10,0 km/h (2 Bft)
09.02.2017 04:00 22,7 C -3,2 C 54 % 86 % 1028,8 hPa 0,0 l/m 4,0 km/h (1 Bft) O-NO 0,00 h 0,0 UV-I 0 W/m -5,2 C -3,5 C 8,5 km/h (2 Bft)
09.02.2017 05:00 22,6 C -3,4 C 54 % 87 % 1029,0 hPa 0,0 l/m 3,0 km/h (1 Bft) O-NO 0,00 h 0,0 UV-I 0 W/m -5,2 C -3,4 C 7,2 km/h (2 Bft)
09.02.2017 06:00 22,6 C -3,6 C 54 % 87 % 1029,0 hPa 0,0 l/m 3,2 km/h (1 Bft) O-NO 0,00 h 0,0 UV-I 0 W/m -5,4 C -3,7 C 7,4 km/h (2 Bft)
09.02.2017 07:00 23,0 C -3,7 C 55 % 87 % 1029,1 hPa 0,0 l/m 2,3 km/h (1 Bft) O-NO 0,00 h 0,0 UV-I 8 W/m -5,5 C -3,7 C 6,1 km/h (2 Bft)
09.02.2017 08:00 23,1 C -3,6 C 55 % 88 % 1029,1 hPa 0,0 l/m 4,0 km/h (1 Bft) O-NO 0,00 h 0,0 UV-I 23 W/m -5,4 C -3,9 C 8,3 km/h (2 Bft)
09.02.2017 09:00 23,1 C -3,4 C 55 % 87 % 1029,0 hPa 0,0 l/m 5,8 km/h (2 Bft) O-NO 0,00 h 0,0 UV-I 50 W/m -5,3 C -4,1 C 11,0 km/h (2 Bft)
09.02.2017 10:00 23,1 C -3,0 C 54 % 85 % 1028,7 hPa 0,0 l/m 4,1 km/h (1 Bft) O-NO 0,00 h 0,6 UV-I 88 W/m -5,1 C -3,3 C 8,9 km/h (2 Bft)
09.02.2017 11:00 23,3 C -2,4 C 53 % 82 % 1028,3 hPa 0,0 l/m 3,7 km/h (1 Bft) O-NO 0,00 h 0,8 UV-I 126 W/m -5,1 C -2,7 C 8,2 km/h (2 Bft)
09.02.2017 12:00 23,2 C -2,4 C 53 % 81 % 1027,9 hPa 0,0 l/m 7,2 km/h (2 Bft) O-NO 0,00 h 0,6 UV-I 100 W/m -5,3 C -3,9 C 13,0 km/h (3 Bft)
09.02.2017 13:00 23,2 C -2,3 C 52 % 81 % 1027,4 hPa 0,0 l/m 7,7 km/h (2 Bft) O-NO 0,00 h 0,7 UV-I 106 W/m -5,1 C -4,2 C 14,1 km/h (3 Bft)
09.02.2017 14:00 23,1 C -2,2 C 53 % 82 % 1027,0 hPa 0,0 l/m 8,7 km/h (2 Bft) O-NO 0,00 h 0,6 UV-I 88 W/m -4,9 C -4,8 C 15,5 km/h (3 Bft)
09.02.2017 15:00 23,1 C -2,1 C 52 % 82 % 1026,7 hPa 0,0 l/m 7,8 km/h (2 Bft) O-NO 0,00 h 0,0 UV-I 53 W/m -4,7 C -4,1 C 14,1 km/h (3 Bft)
09.02.2017 16:00 23,0 C -2,4 C 52 % 83 % 1026,4 hPa 0,0 l/m 8,6 km/h (2 Bft) O-NO 0,00 h 0,0 UV-I 14 W/m -4,9 C -5,3 C 15,5 km/h (3 Bft)
09.02.2017 17:00 23,2 C -2,9 C 53 % 84 % 1026,4 hPa 0,0 l/m 8,9 km/h (2 Bft) O-NO 0,00 h 0,0 UV-I 0 W/m -5,2 C -5,8 C 16,3 km/h (3 Bft)
09.02.2017 18:00 23,3 C -3,1 C 54 % 86 % 1026,4 hPa 0,0 l/m 6,7 km/h (2 Bft) O-NO 0,00 h 0,0 UV-I 0 W/m -5,1 C -4,2 C 13,0 km/h (3 Bft)
09.02.2017 19:00 23,6 C -2,9 C 54 % 86 % 1026,2 hPa 0,0 l/m 5,6 km/h (1 Bft) O-NO 0,00 h 0,0 UV-I 0 W/m -4,9 C -3,6 C 11,2 km/h (2 Bft)
09.02.2017 20:00 23,6 C -2,7 C 54 % 86 % 1026,0 hPa 0,0 l/m 6,0 km/h (2 Bft) O-NO 0,00 h 0,0 UV-I 0 W/m -4,7 C -3,8 C 12,1 km/h (2 Bft)
09.02.2017 21:00 23,8 C -2,5 C 55 % 86 % 1025,6 hPa 0,0 l/m 5,9 km/h (2 Bft) O-NO 0,00 h 0,0 UV-I 0 W/m -4,5 C -3,4 C 11,4 km/h (2 Bft)
09.02.2017 22:00 23,8 C -2,2 C 55 % 87 % 1025,3 hPa 0,0 l/m 4,3 km/h (1 Bft) O-NO 0,00 h 0,0 UV-I 0 W/m -4,0 C -2,9 C 8,7 km/h (2 Bft)
09.02.2017 23:00 23,6 C -1,9 C 56 % 87 % 1025,1 hPa 0,0 l/m 5,0 km/h (1 Bft) O 0,00 h 0,0 UV-I 0 W/m -3,7 C -2,4 C 10,9 km/h (2 Bft)
10.02.2017 00:00 23,2 C -1,8 C 56 % 87 % 1024,8 hPa 0,0 l/m 4,8 km/h (1 Bft) O 0,00 h 0,0 UV-I 0 W/m -3,7 C -2,3 C 10,6 km/h (2 Bft)
10.02.2017 01:00 23,0 C -1,8 C 56 % 87 % 1024,3 hPa 0,0 l/m 4,6 km/h (1 Bft) O 0,00 h 0,0 UV-I 0 W/m -3,6 C -2,3 C 10,8 km/h (2 Bft)
10.02.2017 02:00 22,9 C -1,8 C 56 % 88 % 1024,1 hPa 0,0 l/m 5,6 km/h (1 Bft) O 0,00 h 0,0 UV-I 0 W/m -3,5 C -2,7 C 11,1 km/h (2 Bft)
10.02.2017 03:00 22,7 C -1,8 C 57 % 88 % 1023,7 hPa 0,0 l/m 6,6 km/h (2 Bft) O 0,00 h 0,0 UV-I 0 W/m -3,6 C -3,2 C 13,1 km/h (3 Bft)
10.02.2017 04:00 22,6 C -1,9 C 57 % 88 % 1023,3 hPa 0,0 l/m 5,7 km/h (1 Bft) O 0,00 h 0,0 UV-I 0 W/m -3,6 C -2,6 C 11,3 km/h (2 Bft)
10.02.2017 05:00 22,6 C -1,8 C 57 % 88 % 1023,2 hPa 0,0 l/m 6,0 km/h (2 Bft) O 0,00 h 0,0 UV-I 0 W/m -3,5 C -2,8 C 12,8 km/h (3 Bft)
10.02.2017 06:00 22,4 C -1,8 C 57 % 89 % 1023,1 hPa 0,0 l/m 5,4 km/h (1 Bft) O 0,00 h 0,0 UV-I 0 W/m -3,4 C -2,6 C 12,4 km/h (3 Bft)
10.02.2017 07:00 22,4 C -1,7 C 57 % 90 % 1023,1 hPa 0,0 l/m 6,5 km/h (2 Bft) O-SO 0,00 h 0,0 UV-I 6 W/m -3,1 C -3,0 C 13,8 km/h (3 Bft)
10.02.2017 08:00 22,4 C -1,6 C 57 % 90 % 1023,4 hPa 0,0 l/m 5,1 km/h (1 Bft) O 0,00 h 0,0 UV-I 20 W/m -3,0 C -2,2 C 10,8 km/h (2 Bft)
10.02.2017 09:00 22,5 C -1,6 C 57 % 90 % 1023,4 hPa 0,0 l/m 4,7 km/h (1 Bft) O 0,00 h 0,0 UV-I 47 W/m -3,0 C -2,0 C 10,3 km/h (2 Bft)
10.02.2017 10:00 22,8 C -1,4 C 57 % 90 % 1023,4 hPa 0,0 l/m 4,7 km/h (1 Bft) O 0,00 h 0,5 UV-I 69 W/m -2,9 C -1,8 C 10,7 km/h (2 Bft)
10.02.2017 11:00 22,9 C -1,0 C 57 % 90 % 1023,4 hPa 0,0 l/m 5,1 km/h (1 Bft) O 0,00 h 0,7 UV-I 102 W/m -2,4 C -1,3 C 11,6 km/h (2 Bft)
10.02.2017 12:00 23,0 C -0,5 C 56 % 89 % 1023,1 hPa 0,0 l/m 5,1 km/h (1 Bft) O 0,08 h 0,8 UV-I 125 W/m -2,1 C -1,0 C 11,0 km/h (2 Bft)
10.02.2017 13:00 23,1 C -0,1 C 56 % 87 % 1023,0 hPa 0,0 l/m 6,0 km/h (2 Bft) O 0,28 h 0,8 UV-I 137 W/m -2,0 C -1,1 C 12,2 km/h (2 Bft)
10.02.2017 14:00 23,1 C -0,0 C 55 % 87 % 1023,0 hPa 0,0 l/m 4,5 km/h (1 Bft) O 0,00 h 0,6 UV-I 102 W/m -1,9 C -0,5 C 10,1 km/h (2 Bft)
10.02.2017 15:00 23,3 C -0,0 C 55 % 87 % 1022,9 hPa 0,0 l/m 5,2 km/h (1 Bft) O 0,00 h 0,5 UV-I 57 W/m -1,9 C -0,6 C 11,7 km/h (2 Bft)
10.02.2017 16:00 23,1 C -0,2 C 56 % 87 % 1022,9 hPa 0,0 l/m 5,7 km/h (1 Bft) O 0,00 h 0,0 UV-I 24 W/m -2,1 C -1,0 C 11,4 km/h (2 Bft)
10.02.2017 17:00 23,1 C -0,3 C 56 % 87 % 1022,9 hPa 0,0 l/m 4,5 km/h (1 Bft) O-SO 0,00 h 0,0 UV-I 5 W/m -2,2 C -0,8 C 10,1 km/h (2 Bft)
10.02.2017 18:00 23,5 C -0,2 C 56 % 87 % 1023,1 hPa 0,0 l/m 4,5 km/h (1 Bft) O 0,00 h 0,0 UV-I 0 W/m -2,1 C -0,5 C 10,2 km/h (2 Bft)
10.02.2017 19:00 23,9 C -0,3 C 55 % 87 % 1023,0 hPa 0,0 l/m 5,2 km/h (1 Bft) O 0,00 h 0,0 UV-I 0 W/m -2,1 C -0,7 C 10,9 km/h (2 Bft)
10.02.2017 20:00 23,8 C -0,3 C 56 % 88 % 1023,0 hPa 0,0 l/m 4,0 km/h (1 Bft) O 0,00 h 0,0 UV-I 0 W/m -2,0 C -0,5 C 9,7 km/h (2 Bft)
10.02.2017 21:00 23,9 C -0,4 C 56 % 88 % 1023,2 hPa 0,0 l/m 3,9 km/h (1 Bft) O 0,00 h 0,0 UV-I 0 W/m -2,2 C -0,5 C 9,0 km/h (2 Bft)
10.02.2017 22:00 23,8 C -0,7 C 56 % 88 % 1023,4 hPa 0,0 l/m 3,9 km/h (1 Bft) O-SO 0,00 h 0,0 UV-I 0 W/m -2,5 C -0,9 C 8,7 km/h (2 Bft)
10.02.2017 23:00 23,5 C -1,0 C 56 % 88 % 1023,7 hPa 0,0 l/m 4,8 km/h (1 Bft) O-SO 0,00 h 0,0 UV-I 0 W/m -2,7 C -1,3 C 10,4 km/h (2 Bft)
11.02.2017 00:00 23,1 C -1,1 C 57 % 88 % 1023,8 hPa 0,0 l/m 3,9 km/h (1 Bft) O 0,00 h 0,0 UV-I 0 W/m -2,8 C -1,4 C 9,1 km/h (2 Bft)
11.02.2017 01:00 22,9 C -1,1 C 57 % 88 % 1023,8 hPa 0,0 l/m 3,6 km/h (1 Bft) O 0,00 h 0,0 UV-I 0 W/m -2,8 C -1,2 C 8,5 km/h (2 Bft)
11.02.2017 02:00 22,8 C -1,1 C 57 % 88 % 1023,7 hPa 0,0 l/m 3,4 km/h (1 Bft) O-NO 0,00 h 0,0 UV-I 0 W/m -2,8 C -1,3 C 7,9 km/h (2 Bft)
11.02.2017 03:00 22,7 C -1,2 C 57 % 89 % 1023,4 hPa 0,0 l/m 3,8 km/h (1 Bft) O-NO 0,00 h 0,0 UV-I 0 W/m -2,7 C -1,3 C 8,6 km/h (2 Bft)
11.02.2017 04:00 22,6 C -1,2 C 57 % 91 % 1023,4 hPa 0,0 l/m 3,8 km/h (1 Bft) O 0,00 h 0,0 UV-I 0 W/m -2,5 C -1,5 C 8,8 km/h (2 Bft)
11.02.2017 05:00 22,5 C -1,4 C 57 % 93 % 1023,1 hPa 0,2 l/m 2,6 km/h (1 Bft) NO 0,00 h 0,0 UV-I 0 W/m -2,4 C -1,6 C 6,2 km/h (2 Bft)
11.02.2017 06:00 22,4 C -1,3 C 57 % 92 % 1023,4 hPa 0,0 l/m 1,6 km/h (1 Bft) O-SO 0,00 h 0,0 UV-I 0 W/m -2,4 C -1,4 C 3,8 km/h (1 Bft)
11.02.2017 07:00 22,4 C -1,2 C 57 % 91 % 1023,9 hPa 0,0 l/m 1,1 km/h (0 Bft) O-SO 0,00 h 0,0 UV-I 6 W/m -2,5 C -1,2 C 2,8 km/h (1 Bft)
11.02.2017 08:00 22,6 C -1,2 C 58 % 91 % 1024,2 hPa 0,0 l/m 2,0 km/h (1 Bft) O-SO 0,00 h 0,0 UV-I 26 W/m -2,5 C -1,3 C 4,8 km/h (1 Bft)
11.02.2017 09:00 22,8 C -0,8 C 58 % 89 % 1024,1 hPa 0,0 l/m 1,9 km/h (1 Bft) O 0,25 h 0,7 UV-I 121 W/m -2,3 C -0,8 C 4,8 km/h (1 Bft)
11.02.2017 10:00 22,9 C 0,5 C 57 % 84 % 1024,1 hPa 0,0 l/m 2,4 km/h (1 Bft) O-SO 1,00 h 1,0 UV-I 292 W/m -1,8 C 0,4 C 5,3 km/h (1 Bft)
11.02.2017 11:00 22,9 C 0,8 C 55 % 84 % 1024,2 hPa 0,0 l/m 1,7 km/h (1 Bft) O 1,00 h 1,2 UV-I 237 W/m -1,6 C 0,8 C 4,4 km/h (1 Bft)
11.02.2017 12:00 23,0 C 0,8 C 54 % 86 % 1024,0 hPa 0,0 l/m 2,9 km/h (1 Bft) O-NO 1,00 h 1,1 UV-I 195 W/m -1,4 C 0,8 C 6,8 km/h (2 Bft)
11.02.2017 13:00 22,8 C 0,9 C 55 % 86 % 1023,7 hPa 0,0 l/m 3,4 km/h (1 Bft) O 1,00 h 1,1 UV-I 190 W/m -1,2 C 0,8 C 8,1 km/h (2 Bft)
11.02.2017 14:00 22,8 C 0,6 C 56 % 87 % 1023,5 hPa 0,0 l/m 4,6 km/h (1 Bft) O-NO 0,05 h 0,6 UV-I 112 W/m -1,3 C 0,2 C 9,2 km/h (2 Bft)
11.02.2017 15:00 23,2 C 0,1 C 56 % 88 % 1023,4 hPa 0,0 l/m 4,8 km/h (1 Bft) O-NO 0,00 h 0,5 UV-I 66 W/m -1,6 C -0,6 C 10,4 km/h (2 Bft)
11.02.2017 16:00 23,3 C -0,3 C 56 % 89 % 1023,5 hPa 0,0 l/m 5,3 km/h (1 Bft) O 0,00 h 0,0 UV-I 20 W/m -1,8 C -0,9 C 10,8 km/h (2 Bft)
11.02.2017 17:00 23,1 C -0,9 C 57 % 91 % 1023,7 hPa 0,0 l/m 4,3 km/h (1 Bft) O-NO 0,00 h 0,0 UV-I 0 W/m -2,2 C -1,2 C 9,9 km/h (2 Bft)
11.02.2017 18:00 23,7 C -1,2 C 56 % 91 % 1023,7 hPa 0,0 l/m 7,4 km/h (2 Bft) O-NO 0,00 h 0,0 UV-I 0 W/m -2,4 C -2,9 C 15,4 km/h (3 Bft)
11.02.2017 19:00 23,6 C -1,2 C 56 % 91 % 1024,0 hPa 0,0 l/m 6,4 km/h (2 Bft) O-NO 0,00 h 0,0 UV-I 0 W/m -2,5 C -2,6 C 13,3 km/h (3 Bft)
11.02.2017 20:00 23,6 C -1,3 C 57 % 92 % 1024,6 hPa 0,0 l/m 5,7 km/h (1 Bft) O-NO 0,00 h 0,0 UV-I 0 W/m -2,5 C -2,2 C 11,7 km/h (2 Bft)
11.02.2017 21:00 23,6 C -1,4 C 57 % 92 % 1024,8 hPa 0,0 l/m 4,8 km/h (1 Bft) O-NO 0,00 h 0,0 UV-I 0 W/m -2,5 C -2,0 C 11,0 km/h (2 Bft)
11.02.2017 22:00 23,6 C -1,5 C 57 % 93 % 1025,2 hPa 0,0 l/m 6,2 km/h (2 Bft) O 0,00 h 0,0 UV-I 0 W/m -2,5 C -2,5 C 13,2 km/h (3 Bft)
11.02.2017 23:00 23,4 C -1,7 C 58 % 93 % 1025,3 hPa 0,0 l/m 5,3 km/h (1 Bft) O 0,00 h 0,0 UV-I 0 W/m -2,6 C -2,4 C 11,0 km/h (2 Bft)
12.02.2017 00:00 23,0 C -1,6 C 58 % 93 % 1025,5 hPa 0,0 l/m 6,5 km/h (2 Bft) O-NO 0,00 h 0,0 UV-I 0 W/m -2,6 C -3,0 C 13,4 km/h (3 Bft)
12.02.2017 01:00 22,8 C -1,6 C 58 % 93 % 1025,8 hPa 0,0 l/m 5,1 km/h (1 Bft) O-SO 0,00 h 0,0 UV-I 0 W/m -2,5 C -2,5 C 10,7 km/h (2 Bft)
12.02.2017 02:00 22,7 C -1,6 C 58 % 94 % 1026,3 hPa 0,0 l/m 6,0 km/h (2 Bft) O 0,00 h 0,0 UV-I 0 W/m -2,5 C -2,5 C 12,9 km/h (3 Bft)
12.02.2017 03:00 22,6 C -1,7 C 59 % 94 % 1026,3 hPa 0,0 l/m 5,3 km/h (1 Bft) O-SO 0,00 h 0,0 UV-I 0 W/m -2,5 C -2,5 C 11,6 km/h (2 Bft)
12.02.2017 04:00 22,5 C -1,7 C 59 % 94 % 1026,7 hPa 0,0 l/m 5,4 km/h (1 Bft) O 0,00 h 0,0 UV-I 0 W/m -2,5 C -2,4 C 10,6 km/h (2 Bft)
12.02.2017 05:00 22,4 C -1,7 C 59 % 94 % 1027,2 hPa 0,0 l/m 5,2 km/h (1 Bft) O-NO 0,00 h 0,0 UV-I 0 W/m -2,6 C -2,2 C 10,7 km/h (2 Bft)
12.02.2017 06:00 22,3 C -1,9 C 59 % 94 % 1027,5 hPa 0,0 l/m 4,5 km/h (1 Bft) O 0,00 h 0,0 UV-I 0 W/m -2,7 C -2,1 C 9,9 km/h (2 Bft)
12.02.2017 07:00 22,3 C -1,9 C 59 % 94 % 1028,1 hPa 0,0 l/m 5,5 km/h (1 Bft) O-NO 0,00 h 0,0 UV-I 6 W/m -2,7 C -2,5 C 11,6 km/h (2 Bft)
12.02.2017 08:00 22,5 C -1,8 C 59 % 94 % 1028,9 hPa 0,0 l/m 4,6 km/h (1 Bft) O 0,00 h 0,0 UV-I 15 W/m -2,7 C -2,2 C 10,1 km/h (2 Bft)
12.02.2017 09:00 23,1 C -1,7 C 59 % 94 % 1029,4 hPa 0,0 l/m 3,2 km/h (1 Bft) O 0,00 h 0,0 UV-I 34 W/m -2,5 C -1,8 C 7,6 km/h (2 Bft)
12.02.2017 10:00 23,3 C -1,5 C 59 % 94 % 1029,9 hPa 0,0 l/m 4,1 km/h (1 Bft) O-SO 0,00 h 0,5 UV-I 57 W/m -2,3 C -1,7 C 9,0 km/h (2 Bft)
12.02.2017 11:00 23,3 C -1,1 C 59 % 93 % 1030,3 hPa 0,0 l/m 2,5 km/h (1 Bft) O-SO 0,00 h 0,5 UV-I 72 W/m -2,1 C -1,2 C 6,2 km/h (2 Bft)
12.02.2017 12:00 23,4 C -0,9 C 61 % 93 % 1030,6 hPa 0,0 l/m 3,9 km/h (1 Bft) O 0,00 h 0,6 UV-I 86 W/m -2,0 C -1,0 C 8,8 km/h (2 Bft)
12.02.2017 13:00 23,3 C -0,7 C 61 % 92 % 1030,8 hPa 0,0 l/m 5,7 km/h (1 Bft) O 0,00 h 0,5 UV-I 68 W/m -1,8 C -1,5 C 11,5 km/h (2 Bft)
12.02.2017 14:00 23,2 C -0,7 C 61 % 92 % 1030,8 hPa 0,0 l/m 6,7 km/h (2 Bft) O-NO 0,00 h 0,0 UV-I 48 W/m -1,8 C -1,9 C 12,3 km/h (3 Bft)
12.02.2017 15:00 23,1 C -0,8 C 60 % 92 % 1031,1 hPa 0,0 l/m 6,0 km/h (2 Bft) O-NO 0,00 h 0,0 UV-I 31 W/m -1,9 C -1,7 C 12,2 km/h (2 Bft)
12.02.2017 16:00 23,2 C -0,9 C 60 % 92 % 1031,3 hPa 0,0 l/m 5,6 km/h (1 Bft) O-NO 0,00 h 0,0 UV-I 10 W/m -2,0 C -1,9 C 11,1 km/h (2 Bft)
12.02.2017 17:00 23,5 C -1,0 C 60 % 92 % 1031,7 hPa 0,0 l/m 5,2 km/h (1 Bft) O-NO 0,00 h 0,0 UV-I 0 W/m -2,2 C -1,9 C 10,7 km/h (2 Bft)
12.02.2017 18:00 23,5 C -0,9 C 61 % 92 % 1032,2 hPa 0,0 l/m 6,4 km/h (2 Bft) O-NO 0,00 h 0,0 UV-I 0 W/m -2,0 C -2,3 C 12,4 km/h (3 Bft)
12.02.2017 19:00 23,6 C -0,8 C 61 % 92 % 1032,4 hPa 0,0 l/m 8,5 km/h (2 Bft) O-NO 0,00 h 0,0 UV-I 0 W/m -1,9 C -3,2 C 16,1 km/h (3 Bft)
12.02.2017 20:00 23,5 C -0,6 C 61 % 92 % 1032,5 hPa 0,0 l/m 5,2 km/h (1 Bft) O 0,00 h 0,0 UV-I 0 W/m -1,8 C -1,3 C 11,2 km/h (2 Bft)
12.02.2017 21:00 23,7 C -0,5 C 61 % 91 % 1032,8 hPa 0,0 l/m 7,1 km/h (2 Bft) O 0,00 h 0,0 UV-I 0 W/m -1,8 C -2,1 C 14,6 km/h (3 Bft)
12.02.2017 22:00 23,9 C -0,3 C 61 % 90 % 1032,8 hPa 0,0 l/m 4,5 km/h (1 Bft) O 0,00 h 0,0 UV-I 0 W/m -1,8 C -1,0 C 9,4 km/h (2 Bft)
12.02.2017 23:00 24,1 C -0,3 C 60 % 88 % 1032,7 hPa 0,0 l/m 5,4 km/h (1 Bft) O-NO 0,00 h 0,0 UV-I 0 W/m -1,9 C -1,2 C 11,2 km/h (2 Bft)
Min-Datum _ 12.02.17 09.02.17 08.02.17 08.02.17 06.02.17 - 06.02.17 - - - - 09.02.17 09.02.17 06.02.17
_ Min-Zeit 07:40 07:20 12:25 13:40 00:00 - 00:00 - - - - 06:18 18:09 00:00
Minimum _ 22,2 C -3,7 C 47 % 73 % 1006,8 hPa - 0,0 km/h (0 Bft) - - - - -5,6 C -10,4 C 0,0 km/h (0 Bft)
Max-Datum _ 06.02.17 06.02.17 12.02.17 06.02.17 12.02.17 11.02.17 12.02.17 - 08.02.17 11.02.17 11.02.17 06.02.17 06.02.17 11.02.17
_ Max-Zeit 21:38 13:33 11:47 09:13 21:38 05:45 19:39 - 12:33 11:17 10:12 13:33 14:03 18:49
Maximum _ 24,3 C 4,3 C 61 % 96 % 1032,9 hPa 0,2 l/m 17,7 km/h
O-NO (3 Bft)
- 0,03 h 1,3 UV-I 366 W/m 1,8 C 4,3 C 29,0 km/h
O (5 Bft)
Durchschnitt _ 23,2 C -0,8 C 56 % 89 % 1023,3 hPa #0,2 l/m 3,6 km/h (1 Bft) O-NO #10:04 h 0,7 UV-I 77 W/m -2,4 C -1,2 C 7,6 km/h (2 Bft)